Retour au catalogue

YAOGAN-30 H

ActifMilitaireVLEO
NORAD 43082·PAYLOAD·🇨🇳 China

Lancé Dec 25, 2017 depuis Xichang Satellite Launch Center

Loading…

Prochains Passages (prochaines 24 heures)

TLE

FraisSource: Space-Track

Époque: Sep 14, 2026, 14:13 UTC

1 43082U 17085B   26257.59251735  .00001937  00000-0  14320-3 0  9990
2 43082  34.9959 325.0689 0004475  40.7790 319.3252 15.03007036476151

Suivez YAOGAN-30 H en temps réel avec AllMySat

Download on the App Store